Zurück zum Katalog

ONEWEB-0429

AktivKommunikationPO
NORAD 50500·PAYLOAD·🇬🇧 United Kingdom

Gestartet Dec 27, 2021 von Baikonur Cosmodrome

Loading…

Nächste Überflüge (nächste 24 Stunden)

TLE

AktuellSource: CelesTrak SupGP

Epoche: Sep 14, 2026, 12:25 UTC

1 50500C 21132AH  26257.51786296  .00002409  00000+0  61176-2 0  2579
2 50500  87.9158 317.7092 0001959  95.5598  17.2499 13.18682196    12

Verfolge ONEWEB-0429 in Echtzeit mit AllMySat

Download on the App Store